EZY2753 EGGD-GMAD

Flight info

Callsign EZY2753
Flight time N/A
Altitude 35000
Route EXMOR N92 DAWLY DCT BHD DCT SALCO DCT EBOMO DCT BALDA DCT BATAX DCT PINOX DCT TOFEF DCT VFA DCT OSLAD UR724 AGALI
Aircraft A320/M-SDE2E3FGHIJ1RWXYZ/LB1

Departure

Time N/A
Airport Bristol Airport (EGGD)

Arrival

Time 2026-05-07 17:08
Airport Al Massira Airport (GMAD)
Time Latitude Longitude Altitude Speed Heading
2026-05-07 15:24 40.61017 -7.00042 34869 ft 445 kts 195°
2026-05-07 15:25 40.55039 -7.02081 34871 ft 446 kts 195°
2026-05-07 15:25 40.49046 -7.04122 34873 ft 446 kts 195°
2026-05-07 15:26 40.43118 -7.06137 34874 ft 446 kts 195°
2026-05-07 15:26 40.37306 -7.08110 34870 ft 446 kts 195°
2026-05-07 15:27 40.31179 -7.10185 34862 ft 447 kts 195°
2026-05-07 15:27 40.26226 -7.11864 34854 ft 448 kts 195°
2026-05-07 15:28 40.19834 -7.14044 34846 ft 448 kts 195°
2026-05-07 15:28 40.13748 -7.16117 34842 ft 449 kts 195°
2026-05-07 15:29 40.07683 -7.18178 34841 ft 449 kts 195°
2026-05-07 15:29 40.01688 -7.20211 34839 ft 449 kts 195°
2026-05-07 15:30 39.95618 -7.22267 34841 ft 450 kts 195°
2026-05-07 15:30 39.89534 -7.24323 34840 ft 450 kts 195°
2026-05-07 15:31 39.83620 -7.26308 34841 ft 450 kts 195°
2026-05-07 15:31 39.77548 -7.28346 34840 ft 450 kts 195°
2026-05-07 15:32 39.71639 -7.30331 34840 ft 450 kts 195°
2026-05-07 15:32 39.65535 -7.32382 34840 ft 449 kts 195°
2026-05-07 15:33 39.59396 -7.34440 34841 ft 450 kts 195°
2026-05-07 15:33 39.53343 -7.36438 34841 ft 449 kts 194°
2026-05-07 15:34 39.47238 -7.38017 34840 ft 450 kts 192°
2026-05-07 15:34 39.41221 -7.39521 34842 ft 450 kts 192°
2026-05-07 15:35 39.35046 -7.41063 34841 ft 450 kts 192°
2026-05-07 15:35 39.28994 -7.42571 34841 ft 450 kts 192°
2026-05-07 15:36 39.22901 -7.44088 34841 ft 450 kts 192°
2026-05-07 15:36 39.16717 -7.45623 34841 ft 450 kts 192°
2026-05-07 15:37 39.10563 -7.47149 34840 ft 450 kts 192°
2026-05-07 15:37 39.04635 -7.48616 34841 ft 450 kts 192°
2026-05-07 15:38 38.98447 -7.50159 34841 ft 447 kts 191°
2026-05-07 15:38 38.92480 -7.51646 34837 ft 450 kts 189°
2026-05-07 15:39 38.86504 -7.53110 34841 ft 458 kts 188°
2026-05-07 15:39 38.80217 -7.54629 34855 ft 465 kts 188°
2026-05-07 15:40 38.73861 -7.56176 34860 ft 466 kts 188°
2026-05-07 15:40 38.67473 -7.57739 34864 ft 466 kts 188°
2026-05-07 15:41 38.61340 -7.59240 34870 ft 466 kts 188°
2026-05-07 15:41 38.54916 -7.60808 34879 ft 466 kts 188°
2026-05-07 15:42 38.48626 -7.62340 34887 ft 466 kts 188°
2026-05-07 15:42 38.42302 -7.63876 34890 ft 466 kts 188°
2026-05-07 15:43 38.35990 -7.65409 34892 ft 466 kts 187°
2026-05-07 15:43 38.29663 -7.66971 34893 ft 466 kts 187°
2026-05-07 15:44 38.23277 -7.68532 34894 ft 466 kts 187°
2026-05-07 15:44 38.16886 -7.70083 34894 ft 466 kts 187°
2026-05-07 15:45 38.10553 -7.71612 34894 ft 466 kts 187°
2026-05-07 15:45 38.04198 -7.73141 34894 ft 466 kts 187°
2026-05-07 15:46 37.94650 -7.75433 34894 ft 466 kts 187°
2026-05-07 15:47 37.88277 -7.76958 34893 ft 465 kts 187°
2026-05-07 15:47 37.81908 -7.78474 34893 ft 466 kts 187°
2026-05-07 15:48 37.75518 -7.79996 34893 ft 466 kts 187°
2026-05-07 15:48 37.69183 -7.81504 34893 ft 466 kts 187°
2026-05-07 15:49 37.62784 -7.83025 34893 ft 466 kts 187°
2026-05-07 15:49 37.56392 -7.84541 34894 ft 466 kts 187°
2026-05-07 15:50 37.50030 -7.86048 34893 ft 466 kts 187°
2026-05-07 15:50 37.43655 -7.87554 34893 ft 465 kts 187°
2026-05-07 15:51 37.37308 -7.89051 34893 ft 465 kts 187°
2026-05-07 15:51 37.30879 -7.90567 34893 ft 465 kts 187°
2026-05-07 15:52 37.24483 -7.92072 34894 ft 465 kts 187°
2026-05-07 15:52 37.18112 -7.93570 34893 ft 465 kts 187°
2026-05-07 15:53 37.11731 -7.95066 34893 ft 465 kts 187°
2026-05-07 15:53 37.05351 -7.96556 34895 ft 465 kts 188°
2026-05-07 15:54 36.98964 -7.98277 34893 ft 465 kts 192°
2026-05-07 15:54 36.92651 -8.00348 34893 ft 464 kts 192°
2026-05-07 15:55 36.86401 -8.02396 34894 ft 464 kts 192°
2026-05-07 15:55 36.80121 -8.04443 34894 ft 464 kts 192°
2026-05-07 15:56 36.73827 -8.06494 34894 ft 464 kts 192°
2026-05-07 15:56 36.67529 -8.08544 34892 ft 464 kts 192°
2026-05-07 15:57 36.61227 -8.10594 34894 ft 464 kts 192°
2026-05-07 15:57 36.54936 -8.12637 34893 ft 464 kts 192°
2026-05-07 15:58 36.48620 -8.14685 34893 ft 464 kts 192°
2026-05-07 15:58 36.42336 -8.16719 34894 ft 464 kts 192°
2026-05-07 15:59 36.36031 -8.18757 34893 ft 464 kts 192°
2026-05-07 15:59 36.29708 -8.20797 34893 ft 464 kts 192°
2026-05-07 16:00 36.23426 -8.22820 34893 ft 464 kts 192°
2026-05-07 16:00 36.17089 -8.24858 34895 ft 464 kts 192°
2026-05-07 16:01 36.10790 -8.26881 34895 ft 463 kts 192°
2026-05-07 16:01 36.04472 -8.28906 34894 ft 464 kts 192°
2026-05-07 16:02 35.98749 -8.30737 34894 ft 464 kts 192°
2026-05-07 16:02 35.92213 -8.32820 34893 ft 464 kts 192°
2026-05-07 16:03 35.85849 -8.34833 34894 ft 464 kts 192°
2026-05-07 16:03 35.79528 -8.36827 34894 ft 464 kts 192°
2026-05-07 16:04 35.73203 -8.38825 34893 ft 464 kts 192°
2026-05-07 16:04 35.67149 -8.40737 34893 ft 464 kts 192°
2026-05-07 16:05 35.60865 -8.42722 34893 ft 464 kts 192°
2026-05-07 16:05 35.54534 -8.44718 34893 ft 464 kts 192°
2026-05-07 16:06 35.48217 -8.46705 34892 ft 464 kts 192°
2026-05-07 16:06 35.41874 -8.48696 34893 ft 464 kts 192°
2026-05-07 16:07 35.35586 -8.50667 34895 ft 464 kts 192°
2026-05-07 16:07 35.29239 -8.52654 34894 ft 464 kts 192°
2026-05-07 16:08 35.22874 -8.54643 34894 ft 464 kts 192°
2026-05-07 16:08 35.16607 -8.56597 34895 ft 464 kts 192°
2026-05-07 16:09 35.10331 -8.58552 34899 ft 464 kts 192°
2026-05-07 16:09 35.04020 -8.60515 34907 ft 464 kts 192°
2026-05-07 16:10 34.97828 -8.62438 34921 ft 456 kts 192°
2026-05-07 16:10 34.91705 -8.64324 34925 ft 442 kts 194°
2026-05-07 16:11 34.86040 -8.66072 34923 ft 434 kts 195°
2026-05-07 16:11 34.80116 -8.67933 34922 ft 434 kts 195°
2026-05-07 16:12 34.74254 -8.69758 34922 ft 434 kts 195°
2026-05-07 16:12 34.68340 -8.71584 34921 ft 435 kts 195°
2026-05-07 16:13 34.62457 -8.73395 34922 ft 435 kts 195°
2026-05-07 16:13 34.56522 -8.75217 34922 ft 435 kts 195°
2026-05-07 16:14 34.50621 -8.77026 34921 ft 435 kts 195°
2026-05-07 16:14 34.44738 -8.78828 34921 ft 434 kts 195°
2026-05-07 16:15 34.38820 -8.80633 34922 ft 434 kts 195°
2026-05-07 16:15 34.32897 -8.82435 34921 ft 435 kts 195°
2026-05-07 16:16 34.26953 -8.84239 34921 ft 434 kts 195°
2026-05-07 16:16 34.21084 -8.86017 34922 ft 434 kts 195°
2026-05-07 16:17 34.15174 -8.87805 34922 ft 434 kts 195°
2026-05-07 16:17 34.09288 -8.89585 34921 ft 435 kts 195°
2026-05-07 16:18 34.03299 -8.91392 34920 ft 437 kts 195°
2026-05-07 16:18 33.97390 -8.93173 34922 ft 438 kts 195°
2026-05-07 16:19 33.91420 -8.94968 34921 ft 439 kts 195°
2026-05-07 16:19 33.85451 -8.96755 34921 ft 441 kts 194°
2026-05-07 16:20 33.79464 -8.98545 34921 ft 442 kts 194°
2026-05-07 16:20 33.73440 -9.00349 34921 ft 443 kts 194°
2026-05-07 16:21 33.67387 -9.02159 34920 ft 444 kts 194°
2026-05-07 16:21 33.61350 -9.03962 34921 ft 446 kts 194°
2026-05-07 16:22 33.55397 -9.05738 34921 ft 447 kts 194°
2026-05-07 16:22 33.49956 -9.07360 34922 ft 448 kts 194°
2026-05-07 16:23 33.43940 -9.09150 34921 ft 449 kts 194°
2026-05-07 16:23 33.38440 -9.10785 34921 ft 451 kts 194°
2026-05-07 16:24 33.32272 -9.12616 34921 ft 453 kts 194°
2026-05-07 16:24 33.26138 -9.14434 34922 ft 452 kts 194°
2026-05-07 16:25 33.19908 -9.16279 34922 ft 453 kts 194°
2026-05-07 16:25 33.13686 -9.18120 34921 ft 453 kts 194°
2026-05-07 16:26 33.07550 -9.19941 34922 ft 451 kts 194°
2026-05-07 16:26 33.01466 -9.21746 34924 ft 448 kts 194°
2026-05-07 16:27 32.95372 -9.23552 34923 ft 444 kts 194°
2026-05-07 16:27 32.89351 -9.25333 34923 ft 442 kts 194°
2026-05-07 16:28 32.83365 -9.27092 34922 ft 442 kts 194°
2026-05-07 16:28 32.77362 -9.28855 34921 ft 442 kts 194°
2026-05-07 16:29 32.71296 -9.30639 34922 ft 442 kts 194°
2026-05-07 16:29 32.65336 -9.32391 34922 ft 442 kts 194°
2026-05-07 16:30 32.59318 -9.34158 34922 ft 442 kts 194°
2026-05-07 16:30 32.53326 -9.35916 34922 ft 442 kts 194°
2026-05-07 16:31 32.47308 -9.37678 34921 ft 442 kts 194°
2026-05-07 16:31 32.41303 -9.39434 34922 ft 442 kts 194°
2026-05-07 16:32 32.35300 -9.41187 34921 ft 442 kts 194°
2026-05-07 16:32 32.29320 -9.42931 34922 ft 442 kts 194°
2026-05-07 16:33 32.23270 -9.44695 34921 ft 442 kts 194°
2026-05-07 16:33 32.17257 -9.46444 34923 ft 442 kts 194°
2026-05-07 16:34 32.11292 -9.48176 34921 ft 442 kts 194°
2026-05-07 16:34 32.05270 -9.49923 34922 ft 442 kts 194°
2026-05-07 16:35 31.99248 -9.51668 34923 ft 442 kts 194°
2026-05-07 16:35 31.93206 -9.53416 34745 ft 443 kts 194°
2026-05-07 16:35 31.90192 -9.54287 34493 ft 443 kts 194°
2026-05-07 16:36 31.87152 -9.55163 34239 ft 444 kts 194°
2026-05-07 16:36 31.84158 -9.56023 33989 ft 444 kts 194°
2026-05-07 16:36 31.81095 -9.56902 33734 ft 445 kts 194°
2026-05-07 16:36 31.78056 -9.57776 33481 ft 445 kts 194°
2026-05-07 16:37 31.75020 -9.58649 33221 ft 440 kts 194°
2026-05-07 16:37 31.72068 -9.59498 32964 ft 428 kts 194°
2026-05-07 16:37 31.69268 -9.60304 32592 ft 426 kts 194°
2026-05-07 16:37 31.66288 -9.61163 32030 ft 427 kts 194°
2026-05-07 16:38 31.63361 -9.62004 31375 ft 427 kts 194°
2026-05-07 16:38 31.60468 -9.62836 30673 ft 428 kts 194°
2026-05-07 16:38 31.57545 -9.63676 29954 ft 428 kts 194°
2026-05-07 16:38 31.54598 -9.64523 29192 ft 429 kts 194°
2026-05-07 16:39 31.51762 -9.65339 28443 ft 429 kts 194°
2026-05-07 16:39 31.48807 -9.66199 27638 ft 431 kts 194°
2026-05-07 16:39 31.45853 -9.67057 26868 ft 430 kts 193°
2026-05-07 16:39 31.42920 -9.67763 26394 ft 427 kts 188°
2026-05-07 16:40 31.39980 -9.67986 25898 ft 424 kts 180°
2026-05-07 16:40 31.37009 -9.67717 25386 ft 421 kts 172°
2026-05-07 16:40 31.34164 -9.67043 24906 ft 418 kts 168°
2026-05-07 16:40 31.31325 -9.66258 24400 ft 414 kts 168°
2026-05-07 16:41 31.28559 -9.65475 23893 ft 410 kts 168°
2026-05-07 16:41 31.25772 -9.64687 23377 ft 407 kts 168°
2026-05-07 16:41 31.22994 -9.63905 22865 ft 403 kts 168°
2026-05-07 16:41 31.20254 -9.63138 22352 ft 399 kts 168°
2026-05-07 16:42 31.17588 -9.62393 21848 ft 395 kts 168°
2026-05-07 16:42 31.14959 -9.61661 21351 ft 392 kts 168°
2026-05-07 16:42 31.12275 -9.60914 20839 ft 388 kts 168°
2026-05-07 16:42 31.09656 -9.60186 20342 ft 384 kts 168°
2026-05-07 16:43 31.07061 -9.59465 19848 ft 381 kts 168°
2026-05-07 16:43 31.04484 -9.58746 19354 ft 377 kts 167°
2026-05-07 16:43 31.01909 -9.58010 18856 ft 374 kts 167°
2026-05-07 16:43 30.99387 -9.57282 18371 ft 370 kts 167°
2026-05-07 16:44 30.96898 -9.56565 17892 ft 367 kts 167°
2026-05-07 16:44 30.94419 -9.55852 17410 ft 364 kts 168°
2026-05-07 16:44 30.91968 -9.55148 17092 ft 364 kts 168°
2026-05-07 16:44 30.89499 -9.54441 17047 ft 365 kts 168°
2026-05-07 16:45 30.86997 -9.53727 17039 ft 365 kts 168°
2026-05-07 16:45 30.84541 -9.53027 17033 ft 365 kts 168°
2026-05-07 16:45 30.82058 -9.52319 17028 ft 365 kts 168°
2026-05-07 16:45 30.79568 -9.51608 17022 ft 365 kts 168°
2026-05-07 16:46 30.77111 -9.50708 17010 ft 369 kts 157°
2026-05-07 16:46 30.74949 -9.49058 16716 ft 376 kts 141°
2026-05-07 16:46 30.73242 -9.46748 16303 ft 378 kts 130°
2026-05-07 16:46 30.71739 -9.44182 15870 ft 377 kts 128°
2026-05-07 16:47 30.70291 -9.41598 15438 ft 374 kts 127°
2026-05-07 16:47 30.68885 -9.39069 15012 ft 372 kts 127°
2026-05-07 16:47 30.67479 -9.36534 14583 ft 370 kts 127°
2026-05-07 16:47 30.66091 -9.34028 14156 ft 367 kts 128°
2026-05-07 16:48 30.64690 -9.31486 13721 ft 364 kts 128°
2026-05-07 16:48 30.63318 -9.28987 13290 ft 362 kts 128°
2026-05-07 16:48 30.61991 -9.26569 12871 ft 360 kts 128°
2026-05-07 16:48 30.60631 -9.24089 12438 ft 357 kts 128°
2026-05-07 16:49 30.59285 -9.21633 12006 ft 355 kts 128°
2026-05-07 16:49 30.57946 -9.19188 11573 ft 353 kts 128°
2026-05-07 16:49 30.56609 -9.16747 11139 ft 353 kts 128°
2026-05-07 16:49 30.55272 -9.14306 10704 ft 352 kts 128°
2026-05-07 16:50 30.53955 -9.11900 10270 ft 346 kts 128°
2026-05-07 16:50 30.52663 -9.09538 10008 ft 335 kts 128°
2026-05-07 16:50 30.51257 -9.07543 9975 ft 309 kts 146°
2026-05-07 16:50 30.49422 -9.06398 9776 ft 288 kts 168°
2026-05-07 16:51 30.47468 -9.05990 9579 ft 274 kts 176°
2026-05-07 16:51 30.45618 -9.05761 9368 ft 254 kts 178°
2026-05-07 16:51 30.43906 -9.05567 9157 ft 238 kts 178°
2026-05-07 16:51 30.42256 -9.05377 8901 ft 233 kts 179°
2026-05-07 16:52 30.40649 -9.05132 8627 ft 232 kts 165°
2026-05-07 16:52 30.39286 -9.04062 8348 ft 240 kts 134°
2026-05-07 16:52 30.38591 -9.02253 8081 ft 249 kts 102°
2026-05-07 16:52 30.38575 -9.00242 7847 ft 249 kts 90°
2026-05-07 16:53 30.38739 -8.98250 7593 ft 246 kts 88°
2026-05-07 16:53 30.38932 -8.96263 7336 ft 242 kts 88°
2026-05-07 16:53 30.39120 -8.94338 7083 ft 239 kts 87°
2026-05-07 16:53 30.39305 -8.92405 6826 ft 236 kts 87°
2026-05-07 16:54 30.39477 -8.90526 6573 ft 233 kts 87°
2026-05-07 16:54 30.39489 -8.88659 6295 ft 225 kts 110°
2026-05-07 16:54 30.38758 -8.87138 6029 ft 210 kts 145°
2026-05-07 16:54 30.37512 -8.86401 5788 ft 199 kts 171°
2026-05-07 16:55 30.36155 -8.86102 5545 ft 198 kts 176°
2026-05-07 16:55 30.34798 -8.85898 5347 ft 195 kts 178°
2026-05-07 16:55 30.33447 -8.85712 5164 ft 192 kts 178°
2026-05-07 16:55 30.32132 -8.85530 4999 ft 184 kts 178°
2026-05-07 16:56 30.30848 -8.85350 5002 ft 185 kts 178°
2026-05-07 16:56 30.29536 -8.85167 4995 ft 185 kts 178°
2026-05-07 16:56 30.26985 -8.84884 4983 ft 182 kts 188°
2026-05-07 16:57 30.25771 -8.85245 4987 ft 178 kts 207°
2026-05-07 16:57 30.24725 -8.86030 4986 ft 177 kts 223°
2026-05-07 16:57 30.23943 -8.87129 4986 ft 176 kts 239°
2026-05-07 16:57 30.23475 -8.88459 4985 ft 178 kts 255°
2026-05-07 16:58 30.23375 -8.89940 4985 ft 180 kts 271°
2026-05-07 16:58 30.23676 -8.91371 4985 ft 185 kts 288°
2026-05-07 16:58 30.24381 -8.92675 4985 ft 190 kts 306°
2026-05-07 16:58 30.25322 -8.93782 4990 ft 192 kts 310°
2026-05-07 16:59 30.26306 -8.94847 4986 ft 193 kts 311°
2026-05-07 16:59 30.27300 -8.95916 4989 ft 194 kts 311°
2026-05-07 16:59 30.28298 -8.96996 4989 ft 194 kts 310°
2026-05-07 16:59 30.29290 -8.98074 4989 ft 194 kts 310°
2026-05-07 17:00 30.30271 -8.99169 4986 ft 192 kts 305°
2026-05-07 17:00 30.30975 -9.00458 4987 ft 185 kts 286°
2026-05-07 17:00 30.31271 -9.01906 4990 ft 179 kts 271°
2026-05-07 17:00 30.31362 -9.03369 4993 ft 179 kts 268°
2026-05-07 17:01 30.31426 -9.04828 4991 ft 179 kts 268°
2026-05-07 17:01 30.31477 -9.06275 4990 ft 178 kts 267°
2026-05-07 17:01 30.31520 -9.07729 4989 ft 178 kts 267°
2026-05-07 17:01 30.31558 -9.09198 4989 ft 178 kts 266°
2026-05-07 17:02 30.31591 -9.10641 4984 ft 178 kts 266°
2026-05-07 17:02 30.31621 -9.12077 4830 ft 177 kts 266°
2026-05-07 17:02 30.31649 -9.13522 4586 ft 176 kts 266°
2026-05-07 17:02 30.31678 -9.14934 4344 ft 171 kts 266°
2026-05-07 17:03 30.31706 -9.16345 4113 ft 170 kts 266°
2026-05-07 17:03 30.31733 -9.17732 3886 ft 170 kts 267°
2026-05-07 17:03 30.31761 -9.19106 3661 ft 169 kts 267°
2026-05-07 17:03 30.31790 -9.20504 3433 ft 169 kts 267°
2026-05-07 17:04 30.31819 -9.21884 3208 ft 168 kts 268°
2026-05-07 17:04 30.31849 -9.23200 3005 ft 155 kts 268°
2026-05-07 17:04 30.31878 -9.24416 2773 ft 142 kts 267°
2026-05-07 17:04 30.31903 -9.25536 2576 ft 137 kts 267°
2026-05-07 17:05 30.31927 -9.26657 2422 ft 137 kts 267°
2026-05-07 17:05 30.31951 -9.27736 2215 ft 127 kts 267°
2026-05-07 17:05 30.31974 -9.28779 2049 ft 126 kts 268°
2026-05-07 17:05 30.31997 -9.29813 1884 ft 126 kts 268°
2026-05-07 17:06 30.32025 -9.30841 1721 ft 126 kts 268°
2026-05-07 17:06 30.32060 -9.31869 1533 ft 126 kts 269°
2026-05-07 17:06 30.32103 -9.32897 1323 ft 125 kts 270°
2026-05-07 17:06 30.32149 -9.33913 1161 ft 125 kts 270°
2026-05-07 17:07 30.32173 -9.34931 1070 ft 125 kts 267°
2026-05-07 17:07 30.32174 -9.35951 902 ft 125 kts 266°
2026-05-07 17:07 30.32157 -9.36962 713 ft 124 kts 267°
2026-05-07 17:07 30.32167 -9.37980 532 ft 124 kts 269°
2026-05-07 17:08 30.32208 -9.39005 371 ft 124 kts 270°
2026-05-07 17:08 30.32236 -9.40018 253 ft 123 kts 269°
2026-05-07 17:08 30.32252 -9.40798 234 ft 59 kts 271°
2026-05-07 17:08 30.32277 -9.41150 227 ft 38 kts 288°
2026-05-07 17:09 30.32403 -9.41410 220 ft 34 kts 300°
2026-05-07 17:09 30.32511 -9.41513 218 ft 19 kts 359°
2026-05-07 17:09 30.32650 -9.41519 218 ft 19 kts 358°
2026-05-07 17:09 30.32744 -9.41519 218 ft 6 kts
2026-05-07 17:10 30.32790 -9.41511 218 ft 7 kts 23°
2026-05-07 17:10 30.32818 -9.41464 219 ft 7 kts 88°
2026-05-07 17:10 30.32816 -9.41400 221 ft 9 kts 94°
2026-05-07 17:10 30.32809 -9.41329 222 ft 8 kts 90°
2026-05-07 17:11 30.32841 -9.41300 222 ft 5 kts
2026-05-07 17:11 30.32855 -9.41299 222 ft 0 kts